This demonstration page uses our WeatherBlox Daily Observations layout. Learn more.

Left ArrowRight Arrow

39.92423, -83.80882

Hourly Observations for July 13, 2022

Temp ( °F °C ) Dew Point ( °F °C ) Humidity (%) Winds ( mph kmh ) Pressure ( in mb ) Visibility ( mi km ) Precip ( " mm )
12:56 am 00:56 Clear 64 18 N/A N/A W 3 6 29.96 1014 10 16 0.00 0.00
1:56 am 01:56 Clear 64 18 N/A N/A WNW 3 6 29.96 1015 10 16 0.00 0.00
2:40 am 02:40 Mostly Clear 64 18 N/A N/A NNW 3 6 29.95 1014 10 16 0.00 0.00
2:56 am 02:56 Mostly Clear 63 17 N/A N/A Calm 29.96 1015 10 16 0.00 0.00
3:56 am 03:56 Clear N/A N/A N/A SSW 3 6 N/A 10 16 0.00 0.00
4:56 am 04:56 Clear 61 16 N/A N/A SW 5 7 29.96 1015 10 16 0.00 0.00
5:56 am 05:56 Mostly Clear N/A N/A N/A Calm N/A 10 16 0.00 0.00
6:56 am 06:56 Sunny 61 16 N/A N/A Calm 29.98 1015 10 16 0.01 0.25
7:56 am 07:56 Sunny 66 19 N/A N/A Calm 29.98 1015 10 16 0.00 0.00
8:56 am 08:56 Sunny 72 22.2 65 18.3 79 79 Calm 29.99 1016 10 16 0.00 0.00
9:56 am 09:56 Sunny 76 24.4 66 18.9 72 72 SW 6 9 29.99 1016 10 16 0.00 0.00
10:56 am 10:56 Sunny 79 26.1 67 19.4 67 67 WSW 8 13 30.00 1016 10 16 0.03 0.76
11:56 am 11:56 Mostly Sunny 81 27.2 66 18.9 61 61 SW 6 9 30.00 1016 10 16 0.01 0.25
12:56 pm 12:56 Mostly Cloudy 83 28.3 64 17.8 53 53 WSW 8 13 30.00 1016 10 16 0.00 0.00
1:56 pm 13:56 Mostly Sunny 83 28.3 61 16.1 48 48 NW 12 19 29.99 1016 10 16 0.00 0.00
2:56 pm 14:56 undefined 84 28.9 60 15.6 44 44 W 14 22 29.93 1014 10 16 0.00 0.00
3:56 pm 15:56 Mostly Sunny 85 29.4 61 16.1 45 45 W 9 15 29.93 1013 10 16 0.00 0.00
4:56 pm 16:56 Sunny 85 29.4 60 15.6 43 43 NW 8 13 29.91 1013 10 16 0.00 0.00
5:56 pm 17:56 Mostly Cloudy 82 27.8 61 16.1 49 49 WNW 9 15 29.90 1013 10 16 0.00 0.00
6:56 pm 18:56 Mostly Cloudy 83 28.3 63 17.2 51 51 NW 9 15 29.91 1013 10 16 0.00 0.00
7:56 pm 19:56 Mostly Cloudy with Light Rain 73 22.8 63 17.2 71 71 NNW 9 15 29.95 1014 10 16 0.00 0.00
8:56 pm 20:56 Partly Cloudy 71 21.7 64 17.8 79 79 SSW 5 7 29.96 1014 10 16 0.00 0.00
9:56 pm 21:56 Clear 68 20 67 19.4 96 96 SSW 3 6 29.98 1015 10 16 0.00 0.00
10:56 pm 22:56 Mostly Cloudy 66 18.9 66 18.9 100 100 E 3 6 30.01 1016 10 16 0.00 0.00
11:56 pm 23:56 Clear 64 18 N/A N/A Calm 30.01 1016 10 16 0.00 0.00

Powered by AerisWeather